[[{"header":{"parameterUnit":"m.s-1","parameterCategory":1,"la1":30.2991,"la2":30.254,"lo1":-89.0895,"lo2":-89.0444,"dy":0.0017,"dx":0.0017,"nx":28,"ny":28,"refTime":"2024-02-25T03:00:00:Z","depth":0,"parameterNumber":2,"parameterNumberName":"U-component_of_WINDS"},"data":[0,0,0,0,0,0,0,0,0,0,0,0,0,0,0,0,0,0,0,0,0,0,0,0,0,0,0,0,0,0,0,0,0,0,0,0,0,0,0,0,0,0,0,0,0,0,0,0,0,0,0,0,0,0,0,0,0,0,-0.984,-0.984,0,-0.9825,-0.9825,-0.9824,-0.9808,-0.9807,-0.9807,-0.9807,-0.979,-0.979,-0.979,0,0,0,0,0,0,0,0,0,0,0,0,0,-0.9854,-0.9854,-0.984,-0.984,-0.9839,-0.9825,-0.9825,-0.9824,-0.9808,-0.9807,-0.9807,-0.9807,-0.9791,-0.979,-0.979,0,0,0,0,0,0,0,0,0,0,0,0,0,-0.9844,-0.9854,-0.984,-0.9829,-0.9828,-0.9825,-0.9825,-0.9824,-0.9808,-0.9807,-0.9807,-0.9807,-0.9791,-0.979,-0.979,-0.9795,0,0,-0.9789,-0.9789,0,0,0,0,0,0,0,0,-0.9845,-0.9844,-0.9831,-0.983,-0.9829,-0.9818,-0.9824,-0.9815,-0.9808,-0.9815,-0.9807,-0.9806,-0.98,-0.9799,-0.9797,-0.9795,-0.9794,-0.9789,-0.9789,-0.9789,-0.9789,0,0,0,0,0,0,0,-0.9845,-0.9844,-0.9834,-0.9831,-0.983,-0.9825,-0.9824,-0.9822,-0.981,-0.9815,-0.9814,-0.9812,-0.9799,-0.9797,-0.9796,-0.9794,-0.9789,-0.9789,-0.9789,-0.9788,-0.9796,-0.9797,0,0,0,0,0,0,-0.9848,-0.9845,-0.9834,-0.9833,-0.9836,-0.9825,-0.9823,-0.9822,-0.981,-0.9808,-0.9812,-0.9811,-0.9798,-0.9797,-0.9796,-0.9801,-0.9789,-0.9788,-0.9788,-0.9796,-0.9796,-0.9797,0,0,0,0,0,0,-0.9848,-0.9847,-0.9835,-0.9839,-0.9837,-0.9826,-0.9824,-0.9822,-0.9819,-0.9808,-0.9806,-0.9812,-0.9797,-0.9796,-0.9796,-0.9801,-0.9788,-0.9788,-0.9795,-0.9796,-0.9797,-0.9813,0,0,0,0,0,0,-0.9849,-0.9847,-0.9849,-0.9839,-0.9837,-0.9836,-0.9824,-0.9822,-0.9819,-0.9818,-0.9807,-0.9805,-0.9797,-0.9796,-0.9796,-0.98,-0.9788,-0.9795,-0.9796,-0.9796,-0.9812,-0.9814,-0.9816,0,0,0,0,0,-0.9849,-0.9854,-0.9849,-0.9848,-0.9839,-0.9836,-0.9835,-0.9825,-0.9819,-0.9821,-0.9814,-0.9806,-0.98,-0.9797,-0.9795,-0.98,-0.9795,-0.9796,-0.9796,-0.9811,-0.9814,-0.9816,0,0,0,0,0,0,-0.9864,-0.9852,-0.9847,-0.9849,-0.9844,-0.9833,-0.9835,-0.9828,-0.9824,-0.9823,-0.9811,-0.9809,-0.981,-0.9805,-0.9801,-0.9805,-0.9796,-0.9797,-0.9808,-0.981,-0.9812,-0.9813,-0.9788,0,0,0,0,0,-0.9868,-0.9867,-0.9856,-0.9859,-0.9856,-0.9846,-0.9845,-0.9838,-0.9832,-0.9829,-0.9822,-0.9816,-0.9814,-0.9812,-0.9808,-0.9812,-0.9809,-0.9814,-0.9816,-0.9818,-0.9818,-0.982,-0.9822,-0.98,-0.98,-0.98,0,0,-0.9875,-0.9868,-0.9868,-0.9862,-0.9857,-0.9856,-0.9844,-0.9843,-0.9842,-0.9829,-0.9829,-0.9823,-0.9816,-0.9818,-0.9818,-0.9814,-0.9824,-0.9819,-0.982,-0.982,-0.9821,-0.9823,-0.9825,-0.98,-0.98,-0.98,0,0,-0.9888,-0.9882,-0.9884,-0.988,-0.9873,-0.9866,-0.9867,-0.9858,-0.9854,-0.9854,-0.9844,-0.9842,-0.9838,-0.9833,-0.983,-0.9843,-0.9835,-0.9842,-0.9852,-0.9854,-0.9856,-0.9857,-0.9861,-0.9863,-0.9843,-0.9843,-0.9843,0,-0.9897,-0.9895,-0.9886,-0.9886,-0.9883,-0.9872,-0.9874,-0.987,-0.9862,-0.9861,-0.9856,-0.985,-0.9845,-0.9845,-0.9849,-0.9847,-0.9847,-0.9842,-0.9856,-0.9858,-0.9859,-0.9863,-0.9865,-0.9844,-0.9843,-0.9843,-0.9843,0,-0.9908,-0.9906,-0.9909,-0.9902,-0.99,-0.9901,-0.9892,-0.9891,-0.9885,-0.9879,-0.9879,-0.9872,-0.9867,-0.9867,-0.9861,-0.9867,-0.9865,-0.9858,-0.9849,-0.9862,-0.9866,-0.9867,-0.9845,-0.9845,-0.9844,-0.9844,0,0,-0.9928,-0.9917,-0.9918,-0.9915,-0.9908,-0.9906,-0.9907,-0.9903,-0.9903,-0.9898,-0.9898,-0.9895,-0.9889,-0.9886,-0.9879,-0.9881,-0.9892,-0.9875,-0.9874,-0.9878,-0.9899,-0.9904,-0.9906,-0.9887,-0.9887,-0.9888,-0.99,0,-0.9939,-0.9939,-0.9932,-0.9934,-0.9933,-0.9923,-0.9924,-0.9919,-0.9914,-0.9912,-0.9907,-0.9905,-0.9897,-0.9895,-0.9897,-0.989,-0.9896,-0.9889,-0.9887,-0.9887,-0.9889,-0.9908,-0.9912,-0.9924,-0.9901,-0.9901,-0.9901,0,-0.9951,-0.9948,-0.9951,-0.9944,-0.9943,-0.9944,-0.994,-0.9939,-0.9933,-0.993,-0.9927,-0.9919,-0.992,-0.9912,-0.9913,-0.9908,-0.9907,-0.9904,-0.9904,-0.9903,-0.9895,-0.9907,-0.9927,-0.9929,-0.9904,-0.9903,-0.9903,0,-0.9966,-0.9962,-0.9964,-0.9962,-0.9953,-0.9954,-0.9951,-0.9945,-0.9944,-0.994,-0.9939,-0.9936,-0.9934,-0.9932,-0.9924,-0.9919,-0.9926,-0.9917,-0.9922,-0.9923,-0.9923,-0.9923,-0.9944,-0.9923,-0.9923,-0.9923,-0.9923,0,-0.9979,-0.9981,-0.997,-0.9971,-0.9973,-0.9965,-0.9967,-0.9963,-0.9958,-0.9958,-0.9949,-0.9949,-0.9939,-0.9938,-0.9932,-0.9933,-0.9933,-0.993,-0.9928,-0.993,-0.993,-0.9929,-0.9927,-0.9924,-0.9924,-0.9924,-0.9924,0,-0.9995,-0.9988,-0.9989,-0.9981,-0.998,-0.9982,-0.9975,-0.9976,-0.997,-0.997,-0.997,-0.9962,-0.996,-0.9952,-0.9949,-0.9945,-0.9948,-0.9945,-0.995,-0.9949,-0.9955,-0.9954,-0.9974,-0.9976,-0.9955,-0.9955,-0.9955,0,-1.0003,-1.0005,-0.9998,-0.9997,-0.9994,-0.9994,-0.9992,-0.9984,-0.9983,-0.9978,-0.9979,-0.9977,-0.9975,-0.9973,-0.9966,-0.9964,-0.996,-0.9968,-0.996,-0.9962,-0.996,-0.996,-0.996,-0.9969,-0.9969,-0.997,-0.997,0,-1.0019,-1.0016,-1.0014,-1.0012,-1.001,-1.0008,-1.0005,-1.0005,-0.9996,-0.9995,-0.9994,-0.9992,-0.9989,-0.9987,-0.9984,-0.998,-0.9974,-0.9973,-0.9974,-0.9976,-0.9978,-0.9977,-0.9954,-0.9972,-0.9972,-0.9971,-0.9971,-0.9971,-1.0031,-1.0033,-1.0028,-1.0027,-1.0024,-1.0021,-1.0022,-1.0017,-1.0016,-1.0013,-1.0008,-1.0008,-1.0003,-0.9998,-0.9995,-0.9995,-0.9991,-0.9992,-0.9993,-0.9993,-0.9994,-0.9979,-0.9994,-0.9994,-0.9994,-0.9994,-0.9994,0,-1.0047,-1.0043,-1.0042,-1.0039,-1.0038,-1.0032,-1.0029,-1.0029,-1.0028,-1.0025,-1.0023,-1.0022,-1.002,-1.0015,-1.0012,-1.0013,-1.001,-1.0013,-1.0012,-1.0012,-0.9998,-0.9997,-1.0015,-1.0015,-1.0015,-1.0015,-1.0015,-1.0015,-1.0054,-1.0056,-1.0052,-1.0053,-1.005,-1.0049,-1.0048,-1.0046,-1.0043,-1.0042,-1.0041,-1.0037,-1.0033,-1.003,-1.0029,-1.0027,-1.0027,-1.003,-1.0028,-1.0015,-1.0013,-1.0011,-1.001,-1.0031,-1.0031,-1.0042,-1.0042,-1.0042]},{"header":{"parameterUnit":"m.s-1","parameterCategory":1,"la1":30.2991,"la2":30.254,"lo1":-89.0895,"lo2":-89.0444,"dy":0.0017,"dx":0.0017,"nx":28,"ny":28,"refTime":"2024-02-25T03:00:00:Z","depth":0,"parameterNumber":3,"parameterNumberName":"V-component_of_WINDS"},"data":[0,0,0,0,0,0,0,0,0,0,0,0,0,0,0,0,0,0,0,0,0,0,0,0,0,0,0,0,0,0,0,0,0,0,0,0,0,0,0,0,0,0,0,0,0,0,0,0,0,0,0,0,0,0,0,0,0,0,2.4115,2.4116,0,2.4174,2.4174,2.4175,2.4169,2.4168,2.4168,2.4167,2.4224,2.4226,2.4229,0,0,0,0,0,0,0,0,0,0,0,0,0,2.3995,2.3997,2.4115,2.4116,2.4117,2.4174,2.4174,2.4175,2.417,2.4168,2.4167,2.4166,2.4223,2.4226,2.4229,0,0,0,0,0,0,0,0,0,0,0,0,0,2.405,2.3998,2.4115,2.4121,2.4122,2.4174,2.4175,2.4175,2.417,2.4168,2.4167,2.4166,2.4222,2.4226,2.4229,2.4278,0,0,2.424,2.4242,0,0,0,0,0,0,0,0,2.4047,2.4054,2.4119,2.412,2.4122,2.4163,2.4153,2.421,2.417,2.4151,2.4167,2.4165,2.4205,2.4209,2.4223,2.4281,2.4283,2.424,2.4243,2.4244,2.4245,0,0,0,0,0,0,0,2.4043,2.4052,2.4138,2.412,2.4122,2.4119,2.4126,2.4164,2.4185,2.4153,2.4153,2.416,2.4205,2.422,2.4225,2.4284,2.424,2.4243,2.4246,2.4247,2.4385,2.4386,0,0,0,0,0,0,2.4038,2.4049,2.4136,2.414,2.408,2.4123,2.413,2.4151,2.4184,2.4188,2.4161,2.4159,2.4215,2.4221,2.4227,2.4287,2.4244,2.4247,2.4249,2.4383,2.4385,2.4387,0,0,0,0,0,0,2.4036,2.4046,2.4134,2.4094,2.4105,2.4126,2.415,2.4153,2.4168,2.4191,2.4194,2.4173,2.4214,2.4222,2.4266,2.4289,2.4249,2.4252,2.4381,2.4384,2.4386,2.4407,0,0,0,0,0,0,2.4032,2.4045,2.4065,2.4095,2.4107,2.4173,2.4152,2.4155,2.4174,2.4173,2.4202,2.4206,2.4213,2.426,2.4269,2.4293,2.4255,2.4379,2.4383,2.4385,2.4404,2.441,2.4414,0,0,0,0,0,2.4028,2.4068,2.4066,2.4077,2.4133,2.4174,2.4182,2.419,2.4176,2.4196,2.421,2.4205,2.4284,2.4265,2.4275,2.43,2.4378,2.4382,2.4385,2.4402,2.4409,2.4414,0,0,0,0,0,0,2.4039,2.4072,2.407,2.4121,2.4145,2.4173,2.4198,2.4197,2.4225,2.4222,2.423,2.4237,2.4281,2.4295,2.4272,2.4349,2.4329,2.4335,2.4339,2.4345,2.435,2.4347,2.4258,0,0,0,0,0,2.4048,2.408,2.4106,2.4148,2.4161,2.4177,2.4196,2.42,2.4225,2.4235,2.4253,2.4276,2.4307,2.4327,2.4356,2.4406,2.4412,2.4428,2.4433,2.4437,2.4442,2.4469,2.4477,2.4398,2.4398,2.4398,0,0,2.4065,2.4087,2.4107,2.4151,2.4171,2.4203,2.4186,2.4221,2.4245,2.424,2.4284,2.4297,2.4324,2.4371,2.4393,2.4384,2.4465,2.4441,2.4444,2.4447,2.4474,2.4481,2.4488,2.44,2.44,2.44,0,0,2.4115,2.4134,2.4172,2.4192,2.4221,2.4232,2.4241,2.427,2.4279,2.4322,2.432,2.4347,2.4399,2.4419,2.4435,2.4491,2.4488,2.45,2.4527,2.4554,2.456,2.4565,2.4586,2.4593,2.4505,2.4505,2.4505,0,2.4133,2.4183,2.4191,2.4227,2.4247,2.4244,2.4282,2.43,2.4337,2.4351,2.434,2.4405,2.4423,2.4475,2.4489,2.4502,2.4512,2.4498,2.4558,2.4564,2.4569,2.4589,2.4597,2.4506,2.4506,2.4506,2.4506,0,2.4204,2.4238,2.4265,2.4302,2.4324,2.4361,2.4374,2.4395,2.4397,2.4409,2.4453,2.4474,2.4508,2.452,2.4522,2.4573,2.4566,2.4557,2.4537,2.4578,2.4597,2.4604,2.4508,2.4508,2.4507,2.4507,0,0,2.4263,2.4304,2.4314,2.4331,2.4363,2.4389,2.4425,2.4459,2.4477,2.4502,2.4533,2.4576,2.4568,2.4587,2.4591,2.4614,2.4658,2.4602,2.4603,2.4612,2.4715,2.4723,2.4731,2.4655,2.4656,2.4658,2.4713,0,2.4317,2.4382,2.439,2.4447,2.4479,2.4477,2.4508,2.4531,2.4542,2.457,2.4582,2.4613,2.4599,2.4611,2.4634,2.4648,2.4679,2.4644,2.4683,2.4684,2.4678,2.4741,2.475,2.4801,2.472,2.4722,2.4722,0,2.4388,2.4416,2.4477,2.4505,2.4518,2.4547,2.4578,2.4605,2.463,2.4636,2.4657,2.4658,2.4694,2.4673,2.4723,2.4699,2.4715,2.4724,2.4726,2.4731,2.4707,2.4749,2.4818,2.4826,2.4734,2.4733,2.4732,0,2.4426,2.4479,2.4523,2.4537,2.457,2.459,2.4604,2.4628,2.4648,2.4675,2.4688,2.4718,2.4735,2.4758,2.4766,2.475,2.4816,2.4795,2.4822,2.4822,2.4838,2.4837,2.4911,2.4846,2.4846,2.4846,2.4846,0,2.4486,2.4523,2.4541,2.4567,2.4609,2.4617,2.4658,2.4671,2.4693,2.4721,2.472,2.4747,2.4756,2.4785,2.4791,2.4832,2.4839,2.4845,2.4847,2.4846,2.4846,2.4858,2.4855,2.4848,2.4847,2.4847,2.4847,0,2.4536,2.4549,2.4597,2.4624,2.4632,2.4661,2.4685,2.471,2.4721,2.4757,2.4766,2.4783,2.4816,2.4826,2.4866,2.487,2.4918,2.4916,2.491,2.4911,2.4938,2.4936,2.5024,2.5036,2.4962,2.4963,2.4963,0,2.4574,2.4603,2.4634,2.4654,2.4669,2.4701,2.4721,2.4729,2.475,2.4781,2.4803,2.4835,2.4862,2.4915,2.493,2.496,2.4959,2.4988,2.4964,2.4963,2.4961,2.496,2.4963,2.4993,2.4994,2.4995,2.4995,0,2.464,2.4645,2.4675,2.4707,2.4731,2.4757,2.4781,2.4797,2.4809,2.4832,2.4866,2.4887,2.4928,2.4961,2.4991,2.5005,2.5002,2.5002,2.5011,2.5011,2.5007,2.5011,2.4924,2.5001,2.5,2.5,2.4999,2.4999,2.4687,2.4712,2.4738,2.4771,2.479,2.4813,2.4839,2.4852,2.4881,2.4916,2.4919,2.4956,2.4979,2.502,2.5036,2.5064,2.5056,2.5068,2.5071,2.5074,2.5077,2.5001,2.507,2.5069,2.5069,2.5069,2.5069,0,2.4754,2.477,2.48,2.4835,2.486,2.4855,2.4882,2.4904,2.4937,2.4959,2.4986,2.5025,2.5057,2.5074,2.5105,2.5125,2.5124,2.5133,2.5132,2.5135,2.5082,2.5072,2.5133,2.5133,2.5133,2.5133,2.5133,2.5133,2.4792,2.4835,2.4843,2.4896,2.4911,2.4949,2.4964,2.4985,2.5003,2.5047,2.5074,2.5085,2.5105,2.5138,2.5166,2.517,2.5182,2.5192,2.5195,2.5145,2.5139,2.5133,2.5124,2.5194,2.5194,2.5247,2.5247,2.5248]}]]